Temperature
6 6 6 6 6 6 6 6 6 6 6 6 6 6 6 6 6 6 6 6 6 6 6 6 6 5 5 5 5 5 4 4 3 4 4 4 4 4 3 3 3 3 3
6 6 6 6 6 6 6 6 6 6 6 6 6 6 6 6 6 6 6 6 6 5 5 5 5 5 5 5 5 4 4 4 3 3 3 3 3 3 3 3 3 3 3
5 5 5 5 5 5 6 5 5 5 5 5 5 5 5 5 5 5 5 5 5 5 5 5 5 4 4 4 4 4 4 3 3 3 2 2 2 2 2 2 2 2 2
4 5 5 5 5 5 5 5 5 5 5 5 5 5 5 5 5 5 5 5 4 4 4 4 4 4 4 4 3 3 3 3 3 2 2 2 2 2 2 2 2 2 2
4 4 4 4 4 4 4 4 4 4 4 4 4 4 4 4 4 4 4 4 4 4 4 4 3 3 3 3 3 3 2 2 2 2 2 1 1 1 1 1 1 1 1
3 3 3 4 4 4 4 4 4 4 4 4 4 4 4 4 4 3 3 3 3 3 3 3 3 3 2 2 2 2 2 2 2 1 1 1 1 1 1 1 0 0 0
3 3 3 3 3 3 3 3 3 3 3 3 3 3 3 3 3 3 3 3 3 3 3 2 2 2 2 2 2 2 2 2 2 1 1 1 1 0 0 0 -0 -0 -0
2 2 2 2 2 2 2 3 3 3 3 3 3 3 2 2 2 2 2 2 2 2 2 2 2 2 2 1 1 1 1 1 1 1 1 1 1 0 -0 -0 -0 -0 -0
2 2 2 2 2 2 2 2 2 2 2 2 2 2 2 2 2 2 2 2 2 2 1 1 1 1 1 1 1 1 1 1 1 1 1 1 0 0 -0 -0 -0 -1 -1
1 1 1 1 1 1 1 1 2 2 2 2 2 2 2 2 1 1 1 1 1 1 1 1 1 1 1 1 1 0 0 1 1 1 1 1 0 -0 -0 -1 -1 -1 -2
0 1 1 1 1 1 1 1 1 1 1 1 1 1 1 1 1 1 1 1 1 1 1 0 0 0 0 0 0 0 0 0 0 0 0 -0 -0 -1 -1 -1 -1 -2 -2
0 0 0 1 1 1 1 0 0 0 1 1 0 0 0 0 0 0 0 0 0 0 0 -0 -0 -0 -0 -0 -0 -0 -0 -0 -0 -1 -1 -1 -1 -1 -1 -1 -1 -2 -2
-0 -0 -0 0 0 0 0 -0 -0 -0 0 -0 -0 -0 -0 -0 -0 -0 -0 -0 -0 -0 -0 -1 -1 -1 -1 -1 -1 -1 -1 -1 -1 -1 -1 -1 -1 -1 -1 -1 -1 -2 -2
-1 -1 -1 -0 -1 -1 -1 -1 -1 -1 -1 -1 -1 -1 -1 -1 -1 -1 -1 -1 -1 -1 -1 -1 -1 -1 -1 -1 -1 -1 -1 -2 -2 -1 -1 -1 -1 -2 -2 -2 -2 -2 -2
-1 -1 -1 -1 -1 -1 -1 -1 -1 -1 -1 -1 -1 -1 -1 -1 -1 -1 -1 -1 -1 -1 -1 -1 -2 -2 -2 -2 -2 -2 -2 -2 -2 -2 -2 -2 -2 -2 -2 -2 -2 -2 -2
-2 -2 -2 -2 -2 -2 -2 -2 -2 -1 -1 -1 -1 -2 -2 -2 -2 -2 -2 -2 -2 -2 -2 -2 -2 -2 -2 -2 -2 -2 -3 -3 -2 -2 -2 -2 -2 -2 -2 -3 -3 -3 -3
-2 -2 -2 -2 -2 -2 -2 -2 -2 -2 -2 -2 -2 -2 -2 -2 -2 -2 -2 -2 -2 -2 -2 -2 -2 -2 -2 -3 -3 -3 -3 -3 -3 -3 -3 -3 -3 -3 -3 -3 -3 -3 -3
-3 -3 -3 -3 -3 -3 -3 -3 -2 -2 -3 -2 -2 -2 -2 -2 -2 -2 -2 -2 -2 -2 -2 -3 -3 -3 -3 -3 -3 -3 -3 -3 -3 -3 -3 -3 -3 -3 -3 -3 -3 -3 -4
-3 -3 -3 -3 -3 -3 -3 -3 -3 -3 -3 -3 -3 -3 -3 -3 -3 -3 -3 -3 -3 -3 -3 -3 -3 -3 -3 -3 -3 -3 -3 -3 -3 -3 -3 -3 -4 -4 -4 -4 -4 -4 -4
-4 -4 -4 -4 -4 -4 -4 -4 -4 -4 -4 -4 -4 -4 -4 -4 -4 -3 -3 -3 -3 -3 -3 -4 -4 -4 -4 -4 -4 -4 -4 -3 -3 -3 -4 -4 -4 -4 -4 -4 -4 -4 -4
-4 -4 -4 -4 -4 -4 -4 -4 -4 -4 -5 -5 -4 -4 -4 -4 -4 -4 -4 -4 -4 -4 -4 -4 -4 -4 -4 -4 -4 -4 -4 -4 -4 -4 -4 -4 -4 -4 -4 -5 -5 -5 -5
-4 -4 -4 -4 -4 -4 -5 -5 -5 -5 -5 -5 -5 -5 -5 -5 -5 -5 -4 -4 -4 -4 -4 -4 -4 -4 -4 -4 -4 -4 -4 -4 -4 -4 -4 -4 -4 -5 -5 -5 -5 -5 -5
-5 -5 -5 -5 -5 -5 -5 -5 -5 -5 -5 -5 -5 -5 -5 -5 -5 -5 -5 -5 -5 -5 -5 -5 -5 -4 -4 -4 -4 -4 -4 -4 -4 -4 -4 -4 -5 -5 -5 -5 -5 -5 -5
-5 -5 -5 -5 -5 -5 -5 -5 -5 -5 -6 -6 -6 -6 -6 -6 -5 -5 -5 -5 -5 -5 -5 -5 -5 -5 -5 -5 -5 -5 -5 -5 -5 -5 -5 -5 -5 -5 -5 -5 -5 -5 -5
-6 -6 -6 -6 -6 -6 -6 -6 -6 -6 -6 -6 -6 -6 -6 -6 -6 -6 -6 -6 -6 -6 -5 -5 -5 -5 -5 -5 -5 -5 -5 -5 -5 -5 -5 -5 -5 -5 -5 -5 -5 -6 -6
-6 -6 -6 -6 -6 -6 -6 -6 -6 -6 -6 -6 -6 -6 -6 -6 -6 -6 -6 -6 -6 -6 -6 -6 -6 -5 -5 -5 -5 -5 -5 -5 -5 -5 -5 -5 -5 -5 -5 -6 -6 -6 -6
Wind_Speed
4 4 4 4 4 5 5 5 5 4 4 5 5 5 5 5 5 5 5 5 5 5 4 5 5 4 4 3 3 3 3 4 5 4 3 3 3 3 5 5 5 5 7
3 4 4 4 4 5 5 5 5 5 4 4 5 5 5 5 5 6 6 5 6 6 6 5 5 4 4 4 3 4 4 4 5 5 4 3 4 3 4 4 5 5 7
2 3 4 4 4 5 5 4 4 4 4 4 4 5 5 5 5 5 5 5 5 6 6 6 6 5 5 4 4 4 4 4 4 4 4 3 3 3 3 4 5 5 6
1 2 3 4 4 4 4 4 4 4 4 4 4 5 5 4 5 5 5 5 5 4 5 5 6 6 6 5 5 5 4 4 3 3 3 3 3 3 2 3 5 4 5
0 1 2 2 3 3 3 3 3 3 4 4 4 3 3 4 5 5 5 5 5 4 4 4 5 6 7 6 5 5 5 4 3 3 3 3 3 3 3 3 4 5 5
1 2 1 1 2 2 3 3 3 3 3 3 3 3 3 4 5 6 5 5 4 4 4 4 4 5 7 8 7 7 7 5 5 4 4 5 5 4 3 3 3 4 5
2 2 2 1 1 2 2 3 3 3 3 3 3 4 4 4 6 6 6 4 4 4 4 4 4 4 5 4 5 5 6 7 6 5 5 6 5 5 4 4 4 4 5
2 2 2 1 2 2 2 3 3 3 4 4 4 4 4 4 5 5 4 3 3 3 4 4 4 4 5 4 4 3 3 3 4 4 5 5 5 5 5 4 4 4 4
3 3 2 2 2 2 2 3 3 3 3 3 4 4 4 4 5 4 3 2 2 2 2 3 3 4 6 5 3 3 2 2 2 3 4 4 4 3 2 0 1 2 4
4 3 3 2 2 3 3 2 2 3 3 3 3 3 4 4 5 4 3 2 3 2 2 2 3 4 5 5 3 3 3 2 1 2 2 2 1 1 1 1 2 1 2
4 3 2 1 2 2 2 1 2 2 2 2 2 2 3 4 4 4 4 2 3 3 2 2 2 3 4 3 3 3 3 1 1 0 0 1 1 1 1 2 1 2 2
3 2 2 1 1 1 1 1 2 2 2 2 2 1 1 2 3 4 4 3 3 3 3 2 2 3 2 2 1 2 2 1 1 1 0 1 1 2 2 3 3 3 3
3 2 1 1 1 1 1 1 2 2 2 2 2 2 2 1 2 3 3 3 3 2 2 2 2 2 1 1 2 2 2 2 1 1 0 1 1 1 2 2 3 3 3
2 2 1 0 1 0 1 2 2 2 3 3 2 2 2 1 1 1 2 2 2 2 2 3 3 3 2 3 2 2 1 1 1 1 0 1 1 1 1 1 2 2 2
2 2 1 1 1 1 1 2 3 4 4 4 4 3 3 3 3 3 2 2 2 2 3 3 2 2 2 2 2 1 1 1 1 1 0 1 1 1 2 2 1 2 2
2 1 1 1 1 1 1 1 2 2 3 3 4 3 3 3 3 2 2 3 4 5 4 2 2 2 2 1 1 0 0 0 0 0 0 0 0 1 2 2 2 1 2
2 2 1 1 1 1 1 0 1 2 2 1 1 2 2 3 2 2 3 3 5 5 3 2 2 2 2 1 1 1 1 1 0 0 0 0 1 1 1 2 2 2 2
2 2 2 1 1 1 1 0 1 1 1 1 1 1 2 2 2 3 4 4 3 2 2 2 2 2 1 1 1 1 1 1 0 0 0 0 0 1 1 1 1 2 2
2 1 1 1 1 1 0 0 1 1 1 1 1 1 2 2 3 4 4 2 2 1 1 1 1 1 1 1 1 1 1 1 1 1 0 0 0 0 1 1 1 2 2
2 2 2 0 0 0 1 1 1 1 1 1 1 0 1 2 2 1 1 1 1 1 1 1 1 1 2 2 1 1 1 1 1 1 0 0 0 0 0 1 1 1 1
2 2 3 1 1 1 1 0 0 1 0 0 0 1 1 2 1 1 1 0 1 1 1 1 1 2 1 1 1 2 2 1 1 1 1 1 0 0 0 0 1 1 1
1 1 1 1 0 0 0 0 1 1 1 1 0 0 1 1 1 1 1 1 1 1 2 2 2 2 2 2 2 2 2 2 2 2 1 1 1 0 0 0 1 1 1
1 1 1 1 1 1 1 0 1 1 1 1 0 0 0 1 1 1 1 1 0 0 1 1 1 1 1 2 2 2 2 2 2 2 2 1 1 1 0 0 1 1 1
1 0 0 1 1 1 0 0 1 0 0 0 0 1 1 1 0 0 0 0 0 0 0 1 1 2 2 1 2 2 2 2 2 2 3 2 1 1 0 0 0 1 1
1 0 1 0 0 0 0 0 0 0 0 1 1 1 1 1 1 0 0 0 0 0 0 1 1 2 2 2 2 2 2 2 2 2 2 2 2 2 1 0 0 1 1
0 0 0 0 0 0 0 0 0 1 1 1 1 1 1 1 1 0 0 1 0 0 1 1 1 1 1 1 2 2 2 2 2 2 2 2 2 2 1 1 1 1 1
Wind_Direction
184 182 186 193 190 186 188 193 191 190 185 188 189 190 192 188 185 183 194 194 195 201 204 201 210 203 202 208 204 200 205 212 239 268 272 264 257 268 302 303 300 301 303
192 182 187 190 188 191 194 197 190 192 190 195 188 187 191 189 190 189 193 197 197 202 206 202 208 203 200 205 207 210 212 211 219 250 265 269 266 262 277 287 301 303 302
190 187 190 191 193 201 200 196 192 190 191 198 189 189 192 194 196 201 197 198 201 204 204 204 207 198 207 210 211 220 224 220 215 229 254 274 276 269 282 287 289 289 301
206 197 200 201 202 206 201 194 191 190 195 201 197 197 194 195 199 202 195 194 197 203 209 209 209 207 212 207 214 217 219 215 207 221 246 271 272 268 265 287 293 285 290
297 239 230 219 206 195 188 190 188 191 203 193 189 190 191 197 201 197 190 191 195 194 206 213 213 211 214 214 216 212 209 214 213 224 242 266 265 270 271 273 285 298 287
325 290 268 227 207 195 188 183 175 185 183 175 183 185 199 214 213 211 193 189 192 194 205 218 216 215 220 222 225 223 215 215 218 224 238 246 253 255 261 269 280 301 292
319 298 287 260 217 205 192 180 182 183 179 178 185 188 206 216 212 210 204 191 191 200 205 213 220 219 219 215 222 226 230 230 227 222 227 239 241 239 243 257 260 270 274
324 309 297 266 236 217 196 196 195 190 187 188 192 195 201 213 210 208 198 183 193 205 212 213 215 220 211 207 201 209 226 234 238 233 224 235 236 232 229 239 251 271 277
314 298 285 263 240 225 214 204 197 190 197 195 190 190 193 206 206 197 182 172 183 206 219 223 214 206 203 197 184 197 232 270 291 278 265 262 266 259 253 186 279 303 300
301 293 283 259 230 229 223 215 204 197 203 196 196 194 196 203 204 197 187 179 183 195 218 208 208 202 190 191 183 190 217 250 285 323 330 339 322 281 293 215 205 245 291
296 289 289 272 241 227 213 203 189 188 178 179 192 205 202 203 205 206 205 191 195 194 201 204 218 207 189 198 198 199 221 226 187 194 344 344 341 325 321 315 261 226 254
306 300 298 290 264 230 173 182 175 173 175 179 185 207 211 209 209 216 219 221 211 198 199 201 208 208 184 173 182 189 182 138 124 127 92 337 314 312 315 311 302 291 265
332 324 310 306 281 211 173 178 177 179 186 194 195 209 222 218 226 234 228 214 202 189 190 185 172 171 157 137 127 103 100 109 117 120 128 302 304 303 325 335 343 342 332
329 322 319 318 296 240 197 197 193 197 199 199 202 211 218 223 231 229 206 193 175 161 148 148 139 128 92 88 89 67 55 100 124 145 267 341 1 355 347 341 342 354 354
328 328 327 308 264 266 254 229 222 221 217 202 200 199 198 220 238 242 194 186 171 154 124 116 110 103 95 79 60 50 50 57 43 65 66 28 4 350 339 339 343 342 343
330 327 309 296 277 249 255 298 291 249 241 226 214 203 214 231 227 218 198 177 159 145 129 141 146 147 152 157 158 100 48 35 2 43 54 36 350 338 340 343 342 352 350
293 289 285 286 273 242 211 193 349 2 6 355 210 197 196 198 195 176 159 155 158 146 138 152 162 171 172 171 174 181 217 253 215 164 337 354 3 343 342 342 346 357 353
290 283 281 253 239 230 217 206 162 120 35 21 37 104 132 151 151 143 136 126 137 131 144 162 173 173 165 176 195 204 212 200 159 152 193 8 24 354 345 349 348 354 351
310 287 278 251 242 236 223 132 145 137 134 112 61 74 86 95 106 118 117 118 147 153 156 169 175 175 179 192 198 196 193 194 166 147 168 323 87 56 351 339 339 349 2
344 339 343 330 131 101 93 114 133 136 138 143 149 145 100 87 97 81 70 94 141 179 187 188 184 189 193 195 191 180 180 190 185 174 181 146 103 105 304 318 326 342 339
355 353 352 360 61 84 86 121 141 132 137 134 175 185 141 129 144 153 158 180 201 205 197 190 186 192 188 185 193 190 186 185 178 173 163 149 143 157 278 298 317 335 345
359 355 351 2 57 94 121 146 129 129 140 145 121 83 98 104 140 168 193 221 231 227 204 199 204 201 195 193 192 188 179 176 176 178 173 167 164 150 22 349 351 1 8
19 7 3 23 50 41 28 104 126 136 164 191 200 177 136 158 175 184 206 214 217 198 180 170 170 163 167 184 189 181 186 194 191 179 171 171 166 150 128 3 360 6 1
8 1 29 18 27 61 68 60 101 130 156 173 184 175 166 177 183 179 182 152 117 124 158 162 163 167 168 184 185 183 182 185 185 179 172 170 166 157 156 42 357 358 356
5 23 33 26 11 14 41 32 146 149 172 204 206 188 163 159 164 155 115 100 104 115 122 131 153 161 173 192 188 177 173 173 179 174 166 163 158 156 157 138 91 49 29
22 48 23 16 343 268 257 260 245 211 208 212 206 195 181 176 176 164 142 130 117 134 136 128 148 164 176 172 170 170 163 157 162 173 169 150 150 147 141 127 111 96 83
Height
1425 1428 1430 1433 1435 1437 1439 1441 1444 1446 1448 1449 1451 1454 1455 1457 1458 1460 1461 1463 1464 1465 1467 1468 1469 1470 1471 1471 1472 1472 1472 1472 1470 1468 1469 1468 1468 1467 1466 1465 1464 1462 1460
1423 1425 1427 1429 1431 1433 1435 1438 1440 1441 1443 1445 1447 1449 1450 1452 1454 1455 1456 1458 1459 1460 1462 1463 1463 1465 1465 1466 1467 1467 1467 1467 1466 1464 1463 1463 1462 1462 1462 1460 1459 1457 1455
1421 1422 1424 1426 1428 1430 1432 1433 1435 1437 1439 1441 1442 1444 1445 1447 1449 1450 1451 1453 1454 1456 1457 1458 1459 1460 1460 1461 1462 1462 1462 1462 1461 1460 1459 1458 1457 1457 1456 1455 1454 1452 1450
1418 1419 1420 1422 1424 1426 1428 1430 1431 1433 1434 1436 1438 1439 1440 1442 1444 1445 1446 1448 1449 1451 1452 1453 1454 1455 1455 1456 1456 1457 1457 1457 1456 1456 1455 1453 1453 1452 1451 1449 1448 1446 1445
1415 1416 1417 1419 1420 1422 1424 1425 1427 1429 1430 1432 1433 1434 1436 1438 1439 1441 1442 1443 1444 1445 1447 1448 1449 1449 1450 1451 1452 1452 1452 1452 1451 1450 1449 1448 1447 1446 1446 1444 1442 1441 1439
1412 1413 1414 1415 1417 1418 1420 1421 1423 1425 1426 1427 1429 1430 1432 1434 1436 1437 1438 1439 1440 1441 1441 1442 1443 1444 1444 1446 1446 1447 1448 1447 1445 1445 1444 1444 1442 1442 1441 1440 1438 1436 1434
1410 1411 1411 1412 1413 1415 1416 1418 1419 1421 1422 1423 1425 1426 1428 1430 1432 1433 1435 1435 1435 1436 1437 1437 1438 1438 1440 1440 1441 1441 1442 1442 1441 1441 1439 1438 1438 1437 1436 1435 1434 1433 1430
1407 1408 1409 1410 1411 1412 1413 1414 1416 1417 1419 1420 1421 1423 1425 1426 1428 1429 1430 1431 1431 1432 1432 1432 1433 1433 1434 1436 1436 1436 1436 1436 1436 1435 1435 1434 1433 1433 1432 1431 1429 1428 1427
1405 1406 1407 1407 1408 1409 1410 1411 1413 1414 1415 1416 1418 1419 1421 1422 1424 1425 1427 1427 1427 1427 1428 1428 1428 1428 1429 1430 1431 1431 1431 1431 1431 1431 1431 1430 1430 1429 1428 1427 1425 1423 1421
1403 1404 1404 1405 1405 1406 1407 1408 1409 1411 1412 1413 1414 1416 1417 1419 1420 1422 1423 1423 1423 1424 1424 1424 1424 1424 1425 1426 1426 1426 1426 1426 1426 1426 1426 1426 1426 1425 1424 1423 1422 1420 1418
1401 1402 1402 1402 1403 1404 1404 1405 1406 1407 1409 1410 1411 1413 1414 1415 1417 1418 1419 1420 1420 1420 1420 1420 1421 1421 1421 1422 1422 1423 1423 1423 1423 1423 1423 1423 1422 1422 1421 1420 1419 1418 1416
1399 1399 1399 1399 1400 1400 1401 1402 1403 1405 1406 1407 1408 1409 1411 1412 1414 1415 1416 1417 1417 1417 1417 1417 1418 1418 1418 1418 1418 1419 1419 1419 1420 1420 1420 1419 1419 1419 1418 1418 1417 1415 1414
1397 1396 1396 1397 1397 1398 1398 1399 1400 1402 1402 1403 1405 1406 1407 1409 1411 1412 1413 1414 1414 1415 1415 1415 1416 1416 1415 1415 1416 1416 1416 1416 1417 1417 1417 1417 1417 1416 1416 1415 1414 1413 1412
1395 1395 1395 1395 1395 1396 1396 1397 1398 1398 1399 1400 1401 1402 1404 1405 1407 1408 1410 1410 1411 1412 1412 1413 1413 1414 1413 1413 1413 1414 1414 1415 1415 1415 1415 1415 1415 1415 1414 1413 1412 1410 1410
1393 1393 1393 1393 1393 1394 1394 1395 1395 1396 1396 1397 1398 1400 1401 1403 1405 1406 1407 1407 1408 1409 1409 1410 1410 1411 1411 1411 1412 1412 1413 1413 1413 1413 1414 1413 1414 1413 1412 1411 1410 1409 1407
1392 1392 1392 1392 1392 1392 1392 1393 1393 1394 1395 1396 1397 1399 1400 1402 1403 1403 1405 1406 1406 1407 1407 1407 1408 1409 1409 1410 1410 1411 1411 1411 1412 1412 1412 1412 1412 1411 1410 1410 1409 1408 1406
1391 1391 1391 1391 1390 1390 1390 1390 1391 1392 1393 1394 1395 1397 1398 1399 1400 1401 1402 1403 1404 1404 1405 1405 1406 1407 1407 1408 1409 1409 1410 1410 1410 1410 1410 1410 1410 1409 1409 1409 1408 1406 1405
1390 1390 1389 1389 1389 1389 1389 1389 1389 1389 1390 1392 1394 1395 1396 1397 1398 1399 1400 1401 1401 1402 1403 1403 1404 1405 1406 1407 1407 1407 1408 1408 1408 1409 1409 1409 1408 1408 1408 1407 1407 1406 1405
1389 1388 1388 1388 1388 1387 1387 1387 1388 1388 1389 1390 1392 1393 1395 1396 1397 1398 1398 1399 1399 1400 1401 1402 1403 1403 1404 1405 1406 1406 1407 1407 1407 1407 1407 1407 1407 1407 1407 1406 1406 1405 1404
1388 1387 1387 1387 1386 1386 1387 1387 1387 1388 1388 1389 1390 1391 1392 1393 1394 1395 1397 1397 1398 1399 1400 1400 1401 1402 1403 1403 1404 1405 1405 1405 1405 1405 1405 1405 1405 1406 1406 1405 1405 1404 1404
1387 1387 1386 1386 1386 1386 1386 1386 1387 1387 1387 1388 1389 1390 1391 1392 1393 1394 1395 1396 1397 1397 1398 1399 1399 1400 1401 1402 1402 1403 1403 1404 1404 1404 1404 1404 1404 1404 1405 1405 1404 1404 1403
1386 1386 1386 1385 1385 1385 1386 1386 1386 1387 1387 1388 1388 1389 1390 1391 1391 1392 1393 1394 1395 1396 1397 1397 1398 1399 1399 1400 1401 1401 1402 1402 1403 1403 1403 1404 1404 1404 1404 1403 1403 1403 1403
1386 1385 1385 1385 1385 1385 1385 1385 1385 1386 1386 1387 1387 1388 1389 1389 1390 1391 1392 1393 1393 1394 1395 1396 1396 1397 1398 1398 1399 1400 1400 1401 1402 1402 1403 1403 1403 1403 1403 1403 1403 1402 1402
1385 1385 1384 1384 1384 1384 1384 1384 1384 1385 1385 1386 1386 1387 1387 1388 1389 1389 1390 1391 1392 1393 1393 1394 1395 1396 1396 1397 1398 1398 1399 1400 1401 1401 1402 1402 1402 1402 1403 1403 1402 1402 1402
1384 1384 1384 1383 1383 1383 1383 1383 1384 1384 1384 1385 1385 1385 1386 1387 1387 1388 1389 1390 1390 1391 1392 1393 1394 1395 1395 1396 1396 1397 1398 1399 1399 1400 1401 1401 1402 1402 1402 1402 1402 1402 1402
1383 1383 1383 1383 1383 1382 1382 1382 1382 1383 1383 1383 1384 1384 1385 1385 1386 1387 1387 1388 1389 1390 1390 1391 1392 1393 1394 1395 1396 1396 1397 1398 1398 1399 1400 1400 1401 1401 1402 1402 1402 1402 1402